Weather History for Charlotte, NC

Change the Weather History Date:

Tuesday, February 4, 2003

  Actual Average Record
Temperature  
Mean Temperature 50 °F 42 °F  
Max Temperature 61 °F 53 °F 76 °F (1927)
Min Temperature 37 °F 31 °F 11 °F (1886)
Degree Days  
Heating Degree Days 15 23  
Month to date heating degree days 93  
Since 1 July heating degree days 2200  
Cooling Degree Days 0 0  
Month to date cooling degree days 0  
Year to date cooling degree days 0  
Moisture  
Dew Point 38 °F    
Average Humidity 60    
Maximum Humidity 94    
Minimum Humidity 20    
Precipitation  
Precipitation 0.23 in 0.11 in 1.93 in (1882)
Month to date precipitation 0.45  
Year to date precipitation 3.86  
Snow  
Snow 0.00 in 0.00 in 2.20 in (1907)
Month to date snowfall 0.2  
Since 1 July snowfall 2.7  
Snow Depth -    
Sea Level Pressure  
Sea Level Pressure 29.73 in    
Wind  
Wind Speed 11 mph (West)    
Max Wind Speed 21 mph    
Max Gust Speed 31 mph    
Visibility 10 miles    
Events Rain    
T = Trace of Precipitation, MM = Missing Value Source: NWS Daily Summary

Daily Weather History Graph

Daily Weather History Graph

Search for Another Location

Airport:

Trip Planner

Search our weather history database for the weather conditions in past years. The results will help you decide how hot, cold, wet, or windy it might be!

Date:

Astronomy

Feb. 04, 2003 Rise Set
Actual Time 7:20 AM EST 5:54 PM EST
Civil Twilight 6:54 AM EST 6:21 PM EST
Nautical Twilight 6:24 AM EST 6:51 PM EST
Astronomical Twilight 5:54 AM EST 7:21 PM EST
Moon 9:27 AM EST (2/4) 9:11 PM EST (2/4)
Length of Visible Light 11h 27m
Length of Day
10h 34m
Waxing Crescent, 11% of the Moon is Illuminated
Feb 4
Waxing Crescent
Feb 9
First Quarter
Feb 16
Full
Feb 23
Last Quarter
Mar 2
New

Hourly Weather History & Observations

Time (EST) Temp. Windchill Dew Point Humidity Pressure Visibility Wind Dir Wind Speed Gust Speed Precip Events Conditions
12:51 AM 57.9 °F - 50.0 °F 75% 29.72 in 10.0 mi SSW 10.4 mph 20.7 mph N/A   Overcast
1:51 AM 57.9 °F - 52.0 °F 81% 29.68 in 10.0 mi South 13.8 mph 23.0 mph N/A   Overcast
2:04 AM 57.2 °F - 51.8 °F 82% 29.69 in 10.0 mi South 16.1 mph 23.0 mph N/A   Overcast
2:51 AM 57.9 °F - 53.1 °F 84% 29.64 in 10.0 mi South 12.7 mph 20.7 mph N/A   Overcast
3:51 AM 59.0 °F - 55.0 °F 87% 29.59 in 10.0 mi South 16.1 mph 24.2 mph N/A   Overcast
4:51 AM 60.1 °F - 55.9 °F 86% 29.54 in 10.0 mi South 16.1 mph 31.1 mph 0.00 in Rain Light Rain
5:51 AM 61.0 °F - 55.9 °F 83% 29.54 in 10.0 mi South 19.6 mph 31.1 mph 0.00 in   Overcast
6:41 AM 60.8 °F - 57.2 °F 88% 29.58 in 7.0 mi West 8.1 mph - 0.05 in Rain Rain
6:51 AM 60.1 °F - 57.9 °F 93% 29.57 in 4.0 mi WSW 12.7 mph 21.9 mph 0.10 in Rain Light Rain
7:51 AM 57.0 °F - 55.0 °F 93% 29.61 in 6.0 mi Variable 5.8 mph - 0.11 in Rain Rain
8:13 AM 55.4 °F - 53.6 °F 94% 29.62 in 10.0 mi SSW 8.1 mph - 0.02 in Rain Light Rain
8:51 AM 55.9 °F - 53.1 °F 90% 29.65 in 10.0 mi Variable 6.9 mph - 0.02 in   Mostly Cloudy
9:51 AM 55.9 °F - 52.0 °F 87% 29.68 in 10.0 mi West 5.8 mph - N/A   Scattered Clouds
10:51 AM 57.9 °F - 37.9 °F 47% 29.70 in 10.0 mi WNW 10.4 mph 19.6 mph N/A   Scattered Clouds
11:51 AM 59.0 °F - 37.0 °F 44% 29.73 in 10.0 mi West 11.5 mph - N/A   Scattered Clouds
12:51 PM 59.0 °F - 30.0 °F 33% 29.73 in 10.0 mi West 11.5 mph 20.7 mph N/A   Partly Cloudy
1:51 PM 60.1 °F - 30.0 °F 32% 29.74 in 10.0 mi WNW 20.7 mph 28.8 mph N/A   Partly Cloudy
2:51 PM 59.0 °F - 21.0 °F 23% 29.76 in 10.0 mi WNW 17.3 mph 21.9 mph N/A   Clear
3:51 PM 57.9 °F - 21.9 °F 25% 29.78 in 10.0 mi NW 12.7 mph 19.6 mph N/A   Partly Cloudy
4:51 PM 55.9 °F - 15.1 °F 20% 29.80 in 10.0 mi WNW 13.8 mph 23.0 mph N/A   Partly Cloudy
5:51 PM 52.0 °F - 17.1 °F 25% 29.84 in 10.0 mi WNW 8.1 mph - N/A   Partly Cloudy
6:51 PM 48.0 °F - 25.0 °F 41% 29.87 in 10.0 mi NNW 6.9 mph - N/A   Partly Cloudy
7:51 PM 45.0 °F 41.2 °F 21.9 °F 40% 29.90 in 10.0 mi NW 6.9 mph - N/A   Clear
8:51 PM 43.0 °F 39.5 °F 19.9 °F 40% 29.92 in 10.0 mi NNW 5.8 mph - N/A   Clear
9:51 PM 41.0 °F 37.1 °F 19.0 °F 41% 29.94 in 10.0 mi West 5.8 mph - N/A   Clear
10:51 PM 39.9 °F - 18.0 °F 41% 29.96 in 10.0 mi Calm Calm - N/A   Scattered Clouds
11:51 PM 37.9 °F 35.5 °F 19.9 °F 48% 29.96 in 10.0 mi WNW 3.5 mph - N/A   Mostly Cloudy